RH
22 24 24 24 23 24 22 19 20 16 15 13 11 11 10 8 8 8 10 11 13 14 17 20 26 29 31 32 32 32 33 33 32 31 31 34 31 28 27 25 22 18 13 11 9
23 23 25 26 26 26 26 24 22 20 18 12 10 11 12 11 10 10 11 12 13 15 18 18 15 19 19 14 12 12 11 12 14 16 19 24 30 32 35 35 34 29 23 18 16
23 21 22 23 24 26 29 28 24 21 18 13 12 12 12 12 11 12 8 7 7 8 8 8 8 8 7 7 6 6 5 5 4 4 4 5 5 10 21 31 37 39 32 26 23
13 14 20 19 20 20 27 29 27 21 19 18 16 14 14 13 12 9 6 7 7 7 7 7 7 7 7 7 6 5 5 4 4 4 4 3 4 4 4 6 17 29 36 34 30
15 18 25 24 22 20 23 27 31 24 22 21 19 17 15 14 12 8 7 7 7 8 8 9 9 8 8 7 6 5 4 3 3 3 3 3 3 3 4 6 5 6 15 30 36
21 31 31 37 31 30 29 30 30 29 28 26 23 20 18 14 11 8 9 8 8 9 10 10 9 10 10 8 6 4 2 2 4 6 7 6 6 6 6 8 7 6 6 8 19
30 30 30 35 42 40 34 31 31 30 31 30 26 21 19 14 10 9 11 11 12 13 13 12 13 13 10 5 4 3 2 4 6 6 6 7 8 12 13 11 9 8 8 8 7
33 30 29 33 37 42 39 36 35 33 35 32 28 24 19 14 12 12 11 12 14 15 14 15 14 8 5 4 3 4 6 6 6 6 8 8 9 16 16 13 12 11 9 8 9
31 30 33 37 37 40 38 36 33 37 37 35 30 25 18 15 13 14 15 17 17 17 17 13 8 6 4 3 4 8 7 6 6 13 11 12 13 17 14 13 13 13 13 12 11
32 31 34 40 40 43 41 37 34 37 37 33 29 24 19 15 17 16 17 18 20 20 15 10 6 5 4 5 9 8 6 9 11 12 13 17 21 17 24 20 14 12 9 10 11
32 35 42 43 41 46 43 39 40 41 38 35 30 23 18 17 18 20 20 21 22 17 12 6 6 4 4 10 8 6 10 9 16 21 27 59 48 43 37 32 29 24 20 17 10
34 39 43 41 47 47 43 43 46 42 43 39 30 23 21 21 21 21 22 22 19 14 10 7 5 4 10 10 8 11 10 18 36 56 61 64 44 66 76 59 39 26 26 20 17
35 40 50 47 54 50 47 53 58 54 51 40 29 25 25 24 25 25 24 22 17 14 9 8 5 7 12 8 11 12 18 29 44 49 70 55 77 78 69 49 54 80 70 46 33
37 52 56 53 61 56 52 56 59 57 48 37 31 28 25 26 27 28 26 25 18 14 9 8 5 12 11 8 12 15 31 43 52 56 73 76 79 90 100 100 89 81 84 76 82
52 61 60 68 63 58 55 54 59 64 48 41 32 29 30 30 31 29 26 20 16 14 10 8 9 14 9 10 13 14 32 38 61 66 82 91 99 100 90 100 96 78 70 88 83
70 70 70 77 64 59 54 55 59 60 50 43 36 32 32 35 34 31 25 18 15 14 11 9 11 16 10 15 14 15 31 53 63 84 94 95 96 90 72 55 69 66 97 84 69
76 75 79 74 69 68 62 54 61 65 56 48 42 39 38 38 36 31 22 17 16 16 12 10 14 16 11 17 18 19 29 46 56 66 81 89 80 70 68 62 43 78 88 87 54
77 79 79 72 72 77 75 65 67 69 66 57 49 48 51 43 37 32 23 18 16 16 13 12 18 18 12 15 16 17 24 46 58 80 99 84 76 66 69 64 63 84 96 100 100
83 85 87 85 84 83 86 83 80 74 70 75 72 73 78 54 43 34 22 17 17 17 15 15 22 20 13 15 17 21 31 42 54 77 99 88 71 70 65 73 63 100 86 99 100
89 87 92 89 92 90 84 91 84 82 78 79 82 87 90 83 48 34 23 18 17 16 16 16 24 21 18 18 19 19 37 38 48 64 81 80 65 70 70 79 65 98 91 99 100
84 85 75 72 73 76 92 87 94 89 80 84 88 92 99 93 50 32 17 17 15 15 17 16 27 24 20 19 21 21 40 43 47 61 77 71 74 74 77 70 70 88 98 100 100
81 81 83 80 82 87 83 76 81 86 80 89 92 93 96 89 57 36 15 12 14 15 17 17 28 28 21 20 20 19 25 39 54 64 79 91 84 94 84 77 78 94 100 100 100
33 22 30 52 70 84 86 91 89 90 99 99 99 97 93 94 87 50 18 12 12 15 16 18 28 33 22 22 23 20 23 34 50 60 73 79 89 90 70 61 80 90 100 100 100
3 6 20 34 55 70 75 87 87 96 100 100 100 100 100 100 98 86 48 13 15 16 15 22 35 35 25 19 23 22 29 28 51 52 75 72 74 83 81 60 58 84 98 100 100
3 4 5 10 21 28 39 67 87 86 93 97 98 100 100 100 100 95 73 31 17 16 14 27 37 36 30 23 23 26 30 27 39 45 61 76 66 78 86 72 55 54 82 99 100
4 4 4 5 9 13 37 70 61 65 75 83 100 100 100 100 99 93 72 49 21 14 13 36 39 32 35 25 23 26 25 25 28 42 37 60 65 61 56 68 63 61 49 68 96
7 7 5 6 7 10 46 51 58 63 67 78 82 99 100 100 100 89 92 54 27 12 16 38 42 30 31 29 26 29 28 23 27 37 34 33 45 56 59 47 46 55 53 48 50
Wind_Speed
16 18 19 18 20 22 23 23 24 24 26 28 29 28 28 27 25 25 25 26 26 27 28 27 27 29 29 30 31 32 34 35 36 36 38 38 40 41 41 42 42 44 43 42 43
15 16 18 19 20 22 23 24 25 25 26 28 29 28 28 27 27 29 28 27 27 26 27 29 29 29 29 28 28 29 30 33 35 36 38 40 41 44 46 47 48 49 48 48 48
16 17 18 20 22 23 25 24 25 25 26 28 29 29 30 29 30 30 29 28 26 25 23 21 20 21 22 24 29 32 34 36 38 40 41 40 42 45 49 51 52 54 55 54 53
17 18 19 22 23 26 26 28 28 25 26 29 31 29 30 30 32 30 29 27 25 24 23 23 26 28 30 31 34 37 40 43 46 49 51 51 49 50 51 52 53 56 57 58 59
16 18 23 25 26 26 28 29 29 27 28 29 29 30 30 31 32 30 29 26 25 24 27 29 31 34 35 36 40 45 47 50 52 54 52 55 56 57 56 58 59 58 57 59 61
17 20 26 28 29 29 30 29 29 29 29 31 31 31 31 30 29 28 26 26 26 27 30 32 35 38 40 43 46 49 54 58 55 50 49 49 50 54 60 62 62 64 62 60 60
19 23 28 31 31 31 30 32 31 30 31 32 33 32 33 31 28 29 26 25 27 30 34 37 39 41 42 45 49 55 58 56 53 52 51 49 44 49 55 56 60 62 65 64 64
22 27 31 34 35 33 32 33 33 32 31 32 32 32 31 29 27 26 28 28 32 35 36 40 41 41 45 48 53 54 51 50 52 54 50 48 44 45 51 55 56 58 60 63 63
26 28 33 38 39 35 33 32 34 33 31 32 32 32 29 27 26 28 28 30 32 36 38 38 41 44 48 52 52 49 51 54 52 50 46 45 41 40 43 43 46 52 56 58 61
27 31 36 39 38 36 34 34 35 33 31 31 32 28 27 26 28 28 29 32 36 38 36 40 43 48 52 50 47 50 53 48 46 40 31 26 23 23 21 25 27 32 43 52 59
29 32 39 42 41 36 35 36 33 31 29 31 32 28 27 28 30 30 30 33 36 35 37 39 46 50 51 46 52 53 50 42 25 22 16 14 12 15 20 24 25 25 26 31 37
32 36 40 42 41 36 38 36 32 33 31 33 29 29 25 30 30 32 32 32 33 33 38 42 48 51 45 47 51 50 37 24 14 14 15 14 17 19 21 22 23 24 26 32 37
35 39 42 45 42 39 37 33 31 31 32 30 30 25 27 29 29 29 29 31 33 35 38 44 49 47 44 47 46 33 27 15 14 12 17 16 14 16 17 14 15 21 26 30 38
39 41 43 45 41 39 36 33 32 32 32 29 25 25 29 30 31 30 31 33 34 37 38 44 48 43 45 48 43 22 16 16 16 15 11 12 9 9 9 9 13 18 19 25 21
41 45 41 41 38 36 35 34 33 31 30 28 26 28 30 31 31 31 31 33 34 36 39 43 45 43 45 45 41 18 12 11 18 18 11 13 11 11 10 11 14 17 21 28 28
44 42 39 39 35 35 33 33 33 31 29 28 29 31 32 31 30 30 30 31 33 35 38 42 43 41 43 43 38 23 14 14 16 12 10 14 10 13 13 18 20 27 30 38 22
39 38 40 36 32 32 33 33 31 31 32 30 31 31 32 32 29 29 29 29 31 34 37 41 42 39 40 37 31 20 11 7 11 12 11 10 12 16 19 21 27 28 36 29 7
40 39 37 33 31 32 32 31 30 30 31 33 33 34 34 33 28 29 29 30 31 33 35 39 40 38 38 37 33 22 16 13 16 17 4 12 13 14 17 18 21 25 34 35 11
34 31 29 31 33 33 34 33 34 34 34 36 38 38 36 31 30 28 28 27 29 32 35 38 38 35 36 36 31 20 16 12 12 13 9 11 15 14 14 17 19 22 30 37 15
29 30 31 34 36 35 35 38 38 38 38 38 39 38 37 31 29 29 27 26 27 30 34 36 35 33 33 34 30 21 16 17 13 11 11 10 11 14 10 8 12 17 23 34 23
30 31 36 39 36 36 38 40 43 42 40 41 39 38 36 30 28 28 26 25 26 28 31 34 33 31 31 31 29 18 14 14 14 11 13 11 11 15 15 11 10 13 23 30 29
37 39 39 40 38 39 40 44 44 46 45 43 41 39 34 29 26 26 25 24 24 26 29 32 30 27 29 28 29 21 13 12 13 9 9 12 12 12 13 13 11 11 17 25 31
40 42 42 41 41 41 41 42 42 45 44 41 40 39 36 31 29 25 24 23 23 23 26 30 28 25 27 27 24 23 17 12 12 11 7 8 8 8 10 14 14 9 12 20 28
34 36 36 38 38 40 41 39 39 41 42 39 38 39 37 34 29 27 25 22 21 22 24 26 25 25 24 25 25 20 19 11 10 13 9 8 6 7 10 13 13 11 8 13 18
36 35 36 37 34 34 36 35 37 39 39 38 37 36 38 35 28 24 25 23 21 21 22 25 22 23 23 23 24 20 16 15 9 11 10 7 7 4 5 8 12 12 8 11 12
46 46 46 47 42 41 37 33 35 36 35 34 39 39 37 36 33 24 22 23 21 20 21 23 22 21 22 21 22 21 18 16 10 10 10 9 8 7 4 2 4 7 11 12 9
47 47 48 47 48 46 41 42 40 37 36 37 39 36 36 34 31 25 23 22 22 20 20 21 22 22 21 19 21 21 18 14 10 11 10 9 9 7 6 5 4 2 4 7 11
Wind_Direction
343 341 340 339 334 334 334 330 333 336 338 339 342 343 342 339 337 335 330 323 319 314 310 305 302 298 295 294 293 288 285 280 277 274 271 268 264 261 260 258 254 250 246 244 243
345 345 342 340 336 331 331 330 332 332 332 335 339 340 340 335 332 328 324 320 317 313 307 305 302 299 296 296 295 293 290 286 282 278 275 271 266 262 259 256 255 252 247 242 239
332 332 333 334 332 331 329 327 328 329 330 335 338 338 337 331 329 326 324 325 325 322 318 313 310 308 304 304 304 301 296 294 290 285 278 272 269 263 258 255 251 251 250 247 243
333 332 331 327 323 324 330 329 326 328 331 335 334 335 334 331 326 327 326 328 326 321 316 315 316 314 309 306 306 304 299 295 292 287 282 276 269 265 262 259 254 251 249 248 247
333 335 334 326 321 323 325 331 326 324 327 330 331 334 332 329 327 327 326 325 324 322 319 315 315 313 309 305 306 304 301 296 292 285 279 274 270 267 260 257 256 252 249 245 245
330 333 336 329 324 324 326 328 330 322 324 327 331 332 328 327 327 325 324 325 322 322 320 318 315 312 307 303 303 303 301 298 293 286 279 274 270 265 261 259 254 252 251 247 245
321 327 332 329 325 322 322 323 329 329 327 327 329 328 327 325 324 324 328 322 320 325 325 321 316 311 310 309 308 306 301 298 295 290 283 278 272 265 260 257 256 254 251 249 247
315 320 324 325 325 320 320 325 327 326 326 325 325 325 323 321 324 325 324 326 329 327 324 322 317 314 314 311 309 307 303 297 295 291 287 282 271 260 260 259 258 256 254 253 249
311 316 318 322 321 320 318 321 325 325 326 323 325 322 319 319 322 327 331 332 330 329 327 321 317 318 317 315 312 312 307 302 299 293 288 282 273 271 269 267 260 255 254 252 249
309 312 315 320 322 320 316 317 323 323 324 322 322 316 315 318 325 327 330 334 333 329 324 320 322 324 321 321 319 314 310 306 300 294 287 282 285 279 275 272 266 260 254 251 248
306 309 314 318 318 319 317 316 320 319 324 322 318 314 310 317 324 327 328 332 332 327 324 323 328 327 327 328 322 319 316 313 307 297 298 293 289 290 278 272 272 268 266 260 250
305 309 314 314 316 315 316 316 317 319 327 323 317 313 310 318 324 325 327 328 326 325 326 330 331 332 334 332 329 324 324 324 325 313 315 302 299 303 295 288 277 274 272 260 251
302 307 313 311 316 316 317 316 318 321 324 320 316 307 313 316 320 321 322 324 325 328 330 335 334 337 337 336 335 330 327 336 331 329 321 310 303 299 305 303 306 300 287 272 257
301 306 311 313 315 318 318 317 318 319 320 317 309 304 310 316 320 320 323 325 326 331 334 336 339 341 339 342 341 334 333 333 330 335 339 351 335 320 325 336 336 341 318 329 309
302 307 312 313 317 317 317 318 320 321 318 312 305 310 313 317 319 319 322 321 325 334 336 340 344 343 342 345 345 348 333 338 343 342 335 339 3 41 24 350 337 321 322 312 302
302 304 308 312 316 315 318 324 324 318 314 308 308 311 314 317 316 316 317 319 326 332 336 341 346 346 344 346 348 348 346 343 340 329 318 348 9 13 15 9 360 345 343 332 305
304 305 308 310 314 317 322 324 323 318 315 309 307 310 312 315 312 314 314 315 323 331 337 340 346 347 346 351 344 343 340 327 350 355 323 350 3 359 357 354 342 347 353 352 337
303 306 307 307 310 318 321 323 323 317 311 308 306 307 311 312 312 311 310 316 322 330 334 341 348 348 348 351 350 345 345 351 352 2 21 353 1 341 348 2 352 347 358 3 323
305 306 305 305 311 315 318 318 316 317 316 313 310 307 309 309 308 308 310 314 319 328 334 340 347 348 349 352 352 349 343 345 349 352 343 3 4 341 348 4 354 349 4 1 357
309 310 311 312 314 315 317 317 315 314 312 312 310 309 306 304 305 307 308 312 317 324 331 339 348 349 352 351 353 343 339 346 342 347 353 358 3 10 359 357 358 5 6 4 11
308 308 313 313 312 311 312 313 313 312 311 306 308 308 304 301 302 305 305 309 312 321 328 336 347 348 352 352 348 345 334 341 338 341 342 355 344 2 1 4 17 13 16 13 19
304 309 310 310 309 308 308 309 309 309 309 304 307 307 301 299 299 301 301 303 309 318 325 333 344 347 349 354 346 348 333 330 346 324 336 355 355 6 6 8 17 18 22 20 18
312 313 313 310 309 306 305 305 305 304 303 305 309 307 304 296 295 297 298 299 304 313 321 330 341 344 348 352 346 343 341 326 336 332 325 331 3 12 19 21 15 25 21 32 35
322 321 316 314 311 308 308 309 312 308 304 306 308 305 301 297 293 295 295 296 299 308 316 329 335 338 346 348 350 340 336 316 319 333 321 320 337 360 26 29 16 31 4 42 48
316 317 318 319 317 316 316 314 310 311 310 308 305 304 303 297 286 289 292 292 294 300 311 323 333 336 342 344 348 343 332 327 301 323 318 313 315 323 4 37 31 32 27 23 50
313 313 316 317 317 316 313 311 310 314 311 307 304 303 302 298 289 284 284 286 290 294 305 317 327 332 335 340 343 342 339 331 286 295 317 309 311 320 313 350 23 8 38 30 37
308 307 305 309 311 309 310 307 306 306 304 302 301 302 296 292 284 281 279 281 284 288 294 306 317 326 330 336 338 338 334 328 304 278 298 310 301 301 311 296 286 285 22 42 38